Torna al catalogo

HODOYOSHI 4

AttivoScienzaSSO
NORAD 40011·PAYLOAD·🇯🇵 Japan

Lanciato Jun 19, 2014 da Dombarovsky

Loading…

Prossimi Passaggi (prossime 24 ore)

TLE

AggiornatoSource: Space-Track

Epoca: Sep 14, 2026, 14:12 UTC

1 40011U 14033B   26257.59229502  .00000939  00000-0  10670-3 0  9991
2 40011  97.5474  78.1316 0024002  12.7605 347.4215 14.88308313662109

Traccia HODOYOSHI 4 in tempo reale con AllMySat

Download on the App Store